ゲーレルス第3彗星

82P/Gehrels 3 (2026)

English version
Home page
Updated on December 3, 2025

---------------------------------------------------------------------

・ プロフィール

・ 軌道要素

Epoch 2026 Nov. 16.0 TT = JDT 2461360.5                                         
T 2026 Nov. 14.63014 TT                                 Rudenko                 
q   3.6241903            (2000.0)            P               Q                  
n   0.11701453     Peri.  226.26820     -0.26746001     -0.96342041             
a   4.1397698      Node   239.25213     +0.88961930     -0.24014972             
e   0.1245430      Incl.    1.12802     +0.37019271     -0.11895050             
P   8.42                                                                        
From 113 observations 1975 Oct. 30-2020 May 20, mean residual 0".6.             

・ 光度変化

        m1 = 6.5 + 5 logΔ + 20.0 log r

---------------------------------------------------------------------

軌道要素はM.P.E.C. 2020-L06に掲載されたものです。
光度グラフはComet for Windowsで作成したものです。

---------------------------------------------------------------------

Copyright(C) Seiichi Yoshida (comet@aerith.net). All rights reserved.